(502431) = 2013 RS12 = 2015 BX268

Discovered at Mount Lemmon on 2010-12-13 by Mt. Lemmon Survey.

Orbit

Orbit type: Main Belt

Note: WebGL enabled browser required.

epoch2024-03-31.0
epoch JD2460400.5
perihelion date2025-06-19.56080
perihelion JD2460846.06080
argument of perihelion (°)110.66813
ascending node (°)249.46248
inclination (°)3.16129
eccentricity0.1461937
perihelion distance (AU)2.1068254
Tisserand w.r.t. Jupiter3.5
ΔV w.r.t. Earth (km/sec)9.1
semimajor axis (AU)2.4675682
mean anomaly (°)246.70596
mean daily motion (°/day)0.25427290
aphelion distance (AU)2.828
period (years)3.88
P-vector [x]0.99866409
P-vector [y]-0.01797466
P-vector [z]0.04844535
Q-vector [x]-0.00177655
Q-vector [y]0.92504927
Q-vector [z]0.37984300
absolute magnitude17.63
phase slope0.15
uncertainty0
referenceMPEC 2024-C107
observations used261
oppositions11
arc length (days)6490
first opposition used2005
last opposition used2023
residual rms (arc-secs)0.84
perturbers coarse indicatorM-v
perturbers precise indicator003Ek
first observation date used2005-06-10.0
last observation date used2023-03-18.0
computer nameMPCLINUX
JD of orbit computation2458026.120304
perihelion JD uncertainty (days)8.8464E-05
argument of perihelion uncertainty (°)1.2138E-04
ascending node uncertainty (°)1.1880E-04
inclination uncertainty (°)2.9094E-06
eccentricity uncertainty 8.8826E-08
perihelion distance uncertainty (AU)2.0870E-07
Minimum Orbit Intersection Distances (in AU)
for orbit epoch: 2460200.5, reference: E2024-CA7
Mercury1.74163
Venus1.38642
Earth1.10495
Mars0.71306
Jupiter2.62169
Saturn6.49677
Uranus15.6346
Neptune27.6208

Observations

267 total observations over interval: 2005 06 10.42167 – 2023 03 18.391369
These data are available for download (format description).

Date (UT) J2000 RA J2000 Dec Magn Location Ref
2005 06 10.42167 20 07 58.67 -17 18 38.6 20.9 V 691 – Steward Observatory, Kitt Peak-Spacewatch MPS 815638
2005 06 10.43909 20 07 58.38 -17 18 36.4 21.0 V 691 – Steward Observatory, Kitt Peak-Spacewatch MPS 815638
2005 06 10.45651 20 07 58.02 -17 18 34.6 20.8 V 691 – Steward Observatory, Kitt Peak-Spacewatch MPS 815638
2005 07 15.28134 19 43 55.30 -17 15 44.4 20.4 V 691 – Steward Observatory, Kitt Peak-Spacewatch MPS 870055
2005 07 15.29873 19 43 54.25 -17 15 45.6 20.5 V 691 – Steward Observatory, Kitt Peak-Spacewatch MPS 870055
2006 12 13.35757 07 11 00.88 +20 07 26.8 21.4 V G96 – Mt. Lemmon Survey MPS 815638
2006 12 13.36327 07 11 00.60 +20 07 26.3 21.2 V G96 – Mt. Lemmon Survey MPS 815638
2006 12 13.36876 07 11 00.31 +20 07 26.5 21.4 V G96 – Mt. Lemmon Survey MPS 815638
2006 12 13.37432 07 10 59.98 +20 07 26.4 21.0 V G96 – Mt. Lemmon Survey MPS 815638
2010 12 13.40282 08 18 52.05 +16 38 26.9 21.4 V G96 – Mt. Lemmon Survey MPS 815638
2010 12 13.40801 08 18 51.91 +16 38 27.0 21.3 V G96 – Mt. Lemmon Survey MPS 815638
2010 12 13.41324 08 18 51.73 +16 38 26.5 21.7 V G96 – Mt. Lemmon Survey MPS 815638
2010 12 13.41848 08 18 51.58 +16 38 26.7 21.6 V G96 – Mt. Lemmon Survey MPS 815638
2011 01 11.29459 07 55 04.40 +17 07 38.3 21.1 V G96 – Mt. Lemmon Survey MPS 815638
2011 01 11.29979 07 55 04.00 +17 07 39.5 21.0 V G96 – Mt. Lemmon Survey MPS 815638
2011 01 11.30508 07 55 03.68 +17 07 40.0 21.0 V G96 – Mt. Lemmon Survey MPS 815638
2011 01 11.31035 07 55 03.39 +17 07 40.6 21.2 V G96 – Mt. Lemmon Survey MPS 815638
2013 07 30.31357 22 53 15.57 -01 20 59.8 21.0 V 691 – Steward Observatory, Kitt Peak-Spacewatch MPS 815638
2013 07 30.33124 22 53 15.21 -01 20 59.4 20.9 V 691 – Steward Observatory, Kitt Peak-Spacewatch MPS 815638
2013 07 30.34890 22 53 14.88 -01 20 59.1 20.7 V 691 – Steward Observatory, Kitt Peak-Spacewatch MPS 815638
2013 08 12.45771 22 47 01.206 -01 32 32.13 19.9 w F51 – Pan-STARRS 1, Haleakala MPS 815638
2013 08 12.47323 22 47 00.573 -01 32 34.16 20.1 w F51 – Pan-STARRS 1, Haleakala MPS 815638
2013 08 12.48823 22 46 59.953 -01 32 36.17 20.0 w F51 – Pan-STARRS 1, Haleakala MPS 815638
2013 08 12.50323 22 46 59.335 -01 32 38.13 20.0 w F51 – Pan-STARRS 1, Haleakala MPS 815638
2013 08 28.21288 22 34 58.94 -02 28 25.2 20.0 G G45 – Space Surveillance Telescope, Atom Site MPS 1611132
2013 08 28.23129 22 34 57.91 -02 28 30.9 19.2 G G45 – Space Surveillance Telescope, Atom Site MPS 1611132
2013 08 28.29965 22 34 54.32 -02 28 49.9 19.8 G G45 – Space Surveillance Telescope, Atom Site MPS 1611132
2013 08 28.31416 22 34 53.52 -02 28 54.1 20.4 G G45 – Space Surveillance Telescope, Atom Site MPS 1611132
2013 09 02.22977 22 30 42.41 -02 53 06.7 19.5 V 703 – Catalina Sky Survey MPS 482486
2013 09 02.23819 22 30 41.87 -02 53 08.5 19.4 V 703 – Catalina Sky Survey MPS 482486
2013 09 02.24662 22 30 41.49 -02 53 09.2 20.4 V 703 – Catalina Sky Survey MPS 482486
2013 09 02.25503 22 30 41.04 -02 53 13.9 19.9 V 703 – Catalina Sky Survey MPS 482486
2013 09 02.26981 22 30 40.28 -02 53 18.1 19.3 V G96 – Mt. Lemmon Survey MPS 475206
2013 09 02.27679 22 30 39.90 -02 53 20.3 19.3 V G96 – Mt. Lemmon Survey MPS 475206
2013 09 02.28377 22 30 39.54 -02 53 22.4 19.4 V G96 – Mt. Lemmon Survey MPS 475206
2013 09 02.29075 22 30 39.15 -02 53 24.6 19.3 V G96 – Mt. Lemmon Survey MPS 475206
2013 09 04.34503 22 28 54.69 -03 04 05.1 19.4 V G96 – Mt. Lemmon Survey MPS 475206
2013 09 04.34935 22 28 54.45 -03 04 06.4 19.4 V G96 – Mt. Lemmon Survey MPS 475206
2013 09 04.35367 22 28 54.22 -03 04 07.9 19.5 V G96 – Mt. Lemmon Survey MPS 475206
2013 09 04.35800 22 28 54.00 -03 04 09.2 19.4 V G96 – Mt. Lemmon Survey MPS 475206
2013 09 27.29904 22 13 43.194 -05 00 58.67 20.1 w F51 – Pan-STARRS 1, Haleakala MPS 815638
2013 09 27.31325 22 13 42.820 -05 01 02.45 20.0 w F51 – Pan-STARRS 1, Haleakala MPS 815638
2013 09 27.32748 22 13 42.447 -05 01 06.11 20.1 w F51 – Pan-STARRS 1, Haleakala MPS 815638
2013 09 27.34173 22 13 42.066 -05 01 09.78 20.2 w F51 – Pan-STARRS 1, Haleakala MPS 815638
2013 10 25.16719 22 14 51.36 -06 01 50.6 20.5 V G96 – Mt. Lemmon Survey MPS 815638
2013 10 25.17331 22 14 51.54 -06 01 50.7 20.5 V G96 – Mt. Lemmon Survey MPS 815638
2013 10 25.17942 22 14 51.66 -06 01 50.8 20.5 V G96 – Mt. Lemmon Survey MPS 815638
2013 10 25.18554 22 14 51.86 -06 01 50.4 20.5 V G96 – Mt. Lemmon Survey MPS 815638
2015 01 19.28943 08 51 26.73 +13 16 55.7 21.1 V G96 – Mt. Lemmon Survey MPS 563438
2015 01 19.29611 08 51 26.29 +13 16 57.0 21.1 V G96 – Mt. Lemmon Survey MPS 563438
2015 01 19.30278 08 51 25.93 +13 16 57.9 20.7 V G96 – Mt. Lemmon Survey MPS 563438
2015 01 19.30945 08 51 25.54 +13 16 59.6 21.0 V G96 – Mt. Lemmon Survey MPS 563438
2015 01 21.21459 08 49 33.34 +13 22 43.7 21.2 V 691 – Steward Observatory, Kitt Peak-Spacewatch MPS 563438
2015 01 21.23486 08 49 32.09 +13 22 46.9 21.6 V 691 – Steward Observatory, Kitt Peak-Spacewatch MPS 563438
2015 01 21.26208 08 49 30.45 +13 22 52.3 21.0 V 691 – Steward Observatory, Kitt Peak-Spacewatch MPS 563438
2015 01 26.50598 08 44 13.213 +13 39 42.56 20.9 w F51 – Pan-STARRS 1, Haleakala MPS 567736
2015 01 26.51972 08 44 12.347 +13 39 45.19 21.0 w F51 – Pan-STARRS 1, Haleakala MPS 567736
2015 01 26.53358 08 44 11.484 +13 39 47.90 20.9 w F51 – Pan-STARRS 1, Haleakala MPS 567736
2015 01 26.54731 08 44 10.624 +13 39 50.50 21.0 w F51 – Pan-STARRS 1, Haleakala MPS 567736
2015 02 09.15193 08 30 40.68 +14 26 29.4 20.2 V G96 – Mt. Lemmon Survey MPS 571212
2015 02 09.15823 08 30 40.38 +14 26 30.7 20.4 V G96 – Mt. Lemmon Survey MPS 571212
2015 02 09.17076 08 30 39.66 +14 26 34.0 20.6 V G96 – Mt. Lemmon Survey MPS 571212
2016 04 30.33527 14 24 37.16 -16 59 28.7 21.7 V G96 – Mt. Lemmon Survey MPS 815638
2016 04 30.33964 14 24 36.94 -16 59 28.0 20.9 V G96 – Mt. Lemmon Survey MPS 815638
2016 04 30.34405 14 24 36.62 -16 59 26.3 21.2 V G96 – Mt. Lemmon Survey MPS 815638
2016 04 30.34843 14 24 36.41 -16 59 24.0 21.8 V G96 – Mt. Lemmon Survey MPS 815638
2016 05 02.33859 14 22 44.11 -16 48 19.1 20.9 V G96 – Mt. Lemmon Survey MPS 870055
2016 05 02.34287 14 22 43.87 -16 48 17.9 21.5 V G96 – Mt. Lemmon Survey MPS 870055
2016 05 02.34722 14 22 43.45 -16 48 15.6   G96 – Mt. Lemmon Survey MPS 870055
2016 05 03.29164 14 21 50.33 -16 42 51.5 21.5   W84 – Cerro Tololo-DECam MPS 1579708
2016 05 03.29488 14 21 50.15 -16 42 50.4   W84 – Cerro Tololo-DECam MPS 1579708
2016 05 03.29808 14 21 49.96 -16 42 49.2   W84 – Cerro Tololo-DECam MPS 1579708
2016 05 03.30128 14 21 49.78 -16 42 48.1   W84 – Cerro Tololo-DECam MPS 1579708
2016 05 03.30446 14 21 49.60 -16 42 47.1   W84 – Cerro Tololo-DECam MPS 1579708
2016 05 04.23120 14 20 57.79 -16 37 32.9 21.4   W84 – Cerro Tololo-DECam MPS 1579708
2016 05 04.23436 14 20 57.60 -16 37 31.8   W84 – Cerro Tololo-DECam MPS 1579708
2016 05 04.23755 14 20 57.42 -16 37 30.7   W84 – Cerro Tololo-DECam MPS 1579708
2016 05 04.24074 14 20 57.24 -16 37 29.6   W84 – Cerro Tololo-DECam MPS 1579708
2016 05 04.24392 14 20 57.05 -16 37 28.4   W84 – Cerro Tololo-DECam MPS 1579708
2016 05 04.24706 14 20 56.88 -16 37 27.4   W84 – Cerro Tololo-DECam MPS 1579708
2016 05 04.25027 14 20 56.69 -16 37 26.3   W84 – Cerro Tololo-DECam MPS 1579708
2016 05 04.25345 14 20 56.51 -16 37 25.2   W84 – Cerro Tololo-DECam MPS 1579708
2016 05 04.25666 14 20 56.32 -16 37 24.1   W84 – Cerro Tololo-DECam MPS 1579708
2016 05 04.25983 14 20 56.14 -16 37 22.9   W84 – Cerro Tololo-DECam MPS 1579708
2017 07 30.53948 00 19 00.463 +07 11 36.65 20.9 w F51 – Pan-STARRS 1, Haleakala MPS 807980
2017 07 30.54941 00 19 00.682 +07 11 39.38 20.9 w F51 – Pan-STARRS 1, Haleakala MPS 807980
2017 07 30.56929 00 19 01.130 +07 11 44.85 20.8 w F51 – Pan-STARRS 1, Haleakala MPS 807980
2017 09 02.41796 00 16 35.310 +07 51 23.78 19.7 i F51 – Pan-STARRS 1, Haleakala MPS 815045
2017 09 02.42904 00 16 34.917 +07 51 21.96 19.9 i F51 – Pan-STARRS 1, Haleakala MPS 815045
2017 09 02.44011 00 16 34.519 +07 51 20.32 19.8 i F51 – Pan-STARRS 1, Haleakala MPS 815045
2017 09 02.45121 00 16 34.129 +07 51 18.61 19.8 i F51 – Pan-STARRS 1, Haleakala MPS 815045
2017 09 15.45135 00 07 41.972 +06 59 43.60 19.8 w F51 – Pan-STARRS 1, Haleakala MPS 817086
